QPF
0.00 0.00 0.00 0.00 0.00 0.00 0.00 0.00 0.00 0.00 0.00 0.00 0.00 0.00 0.00 0.01 0.01 0.01 0.01 0.01 0.02 0.03 0.04 0.04 0.05 0.08 0.09 0.13 0.21 0.25 0.24 0.21 0.19 0.16 0.12 0.09 0.06 0.05 0.05 0.04 0.02 0.01 0.02
0.00 0.00 0.00 0.00 0.00 0.00 0.00 0.00 0.00 0.00 0.00 0.00 0.00 0.00 0.00 0.01 0.01 0.01 0.01 0.01 0.01 0.01 0.02 0.04 0.05 0.05 0.07 0.10 0.13 0.17 0.22 0.23 0.23 0.20 0.18 0.15 0.11 0.06 0.04 0.04 0.04 0.01 0.03
0.00 0.00 0.00 0.00 0.00 0.00 0.00 0.00 0.00 0.00 0.00 0.00 0.00 0.01 0.01 0.01 0.01 0.01 0.01 0.01 0.01 0.01 0.01 0.01 0.02 0.03 0.04 0.05 0.07 0.11 0.17 0.20 0.21 0.22 0.23 0.17 0.12 0.11 0.06 0.04 0.03 0.03 0.04
0.00 0.00 0.00 0.00 0.00 0.00 0.00 0.00 0.00 0.00 0.00 0.00 0.00 0.01 0.01 0.01 0.01 0.01 0.01 0.01 0.01 0.01 0.01 0.01 0.01 0.01 0.02 0.04 0.07 0.10 0.13 0.19 0.20 0.20 0.20 0.16 0.13 0.15 0.11 0.07 0.05 0.04 0.04
0.00 0.00 0.00 0.00 0.00 0.00 0.00 0.00 0.00 0.00 0.00 0.00 0.00 0.01 0.01 0.01 0.01 0.01 0.01 0.01 0.01 0.01 0.01 0.01 0.01 0.01 0.02 0.03 0.05 0.10 0.13 0.16 0.19 0.20 0.19 0.19 0.16 0.12 0.12 0.12 0.10 0.06 0.04
0.00 0.00 0.00 0.00 0.00 0.00 0.00 0.00 0.00 0.00 0.00 0.00 0.00 0.00 0.00 0.01 0.01 0.01 0.01 0.01 0.02 0.02 0.01 0.01 0.01 0.01 0.02 0.02 0.03 0.06 0.09 0.12 0.16 0.19 0.20 0.20 0.20 0.15 0.12 0.12 0.13 0.12 0.09
0.00 0.00 0.00 0.00 0.00 0.00 0.00 0.00 0.00 0.00 0.00 0.00 0.00 0.00 0.00 0.00 0.01 0.01 0.01 0.01 0.02 0.02 0.03 0.03 0.02 0.02 0.02 0.03 0.03 0.04 0.06 0.08 0.11 0.15 0.18 0.18 0.20 0.20 0.19 0.17 0.15 0.15 0.11
0.00 0.00 0.00 0.00 0.00 0.00 0.00 0.00 0.00 0.00 0.00 0.00 0.00 0.00 0.00 0.01 0.02 0.02 0.02 0.02 0.02 0.03 0.03 0.03 0.02 0.02 0.03 0.03 0.04 0.05 0.06 0.08 0.09 0.10 0.15 0.20 0.21 0.23 0.21 0.17 0.15 0.14 0.13
0.00 0.00 0.00 0.00 0.00 0.00 0.00 0.00 0.00 0.00 0.00 0.00 0.00 0.00 0.01 0.01 0.01 0.02 0.02 0.02 0.02 0.02 0.02 0.02 0.03 0.03 0.03 0.04 0.05 0.06 0.07 0.07 0.08 0.08 0.10 0.14 0.19 0.21 0.23 0.20 0.16 0.15 0.14
0.00 0.00 0.00 0.00 0.00 0.00 0.00 0.00 0.00 0.00 0.00 0.00 0.00 0.00 0.01 0.01 0.00 0.00 0.01 0.02 0.02 0.02 0.03 0.02 0.03 0.03 0.03 0.03 0.05 0.06 0.07 0.07 0.08 0.07 0.08 0.10 0.12 0.15 0.19 0.19 0.17 0.14 0.13
0.00 0.00 0.00 0.00 0.00 0.00 0.00 0.00 0.00 0.00 0.00 0.00 0.00 0.00 0.00 0.00 0.00 0.00 0.00 0.00 0.01 0.04 0.06 0.04 0.03 0.03 0.04 0.04 0.04 0.05 0.06 0.07 0.08 0.09 0.08 0.09 0.11 0.13 0.15 0.19 0.22 0.19 0.15
0.00 0.00 0.00 0.00 0.00 0.00 0.00 0.00 0.00 0.00 0.00 0.00 0.00 0.00 0.00 0.00 0.01 0.01 0.01 0.00 0.01 0.02 0.03 0.03 0.03 0.04 0.04 0.03 0.03 0.03 0.04 0.06 0.07 0.08 0.09 0.10 0.11 0.12 0.14 0.17 0.21 0.24 0.21
0.00 0.00 0.00 0.00 0.00 0.00 0.00 0.00 0.00 0.00 0.00 0.00 0.00 0.00 0.00 0.01 0.00 0.01 0.01 0.01 0.01 0.01 0.01 0.02 0.03 0.04 0.05 0.05 0.04 0.04 0.03 0.03 0.05 0.07 0.09 0.09 0.11 0.10 0.10 0.13 0.16 0.20 0.23
0.00 0.00 0.00 0.00 0.00 0.00 0.00 0.00 0.00 0.00 0.00 0.00 0.00 0.00 0.00 0.00 0.01 0.01 0.01 0.00 0.00 0.01 0.01 0.03 0.04 0.04 0.03 0.03 0.05 0.05 0.04 0.03 0.03 0.04 0.06 0.08 0.10 0.13 0.11 0.09 0.11 0.16 0.21
0.00 0.00 0.00 0.00 0.00 0.00 0.00 0.00 0.00 0.00 0.00 0.00 0.00 0.00 0.00 0.00 0.00 0.00 0.00 0.00 0.00 0.00 0.01 0.03 0.06 0.04 0.02 0.02 0.03 0.04 0.04 0.04 0.04 0.04 0.04 0.06 0.08 0.10 0.13 0.12 0.10 0.12 0.16
0.00 0.00 0.00 0.00 0.00 0.00 0.00 0.00 0.00 0.00 0.00 0.00 0.00 0.00 0.00 0.00 0.00 0.00 0.00 0.00 0.00 0.00 0.01 0.01 0.02 0.02 0.01 0.02 0.02 0.03 0.04 0.04 0.05 0.05 0.05 0.06 0.08 0.09 0.08 0.10 0.12 0.13 0.15
0.00 0.00 0.00 0.00 0.00 0.00 0.00 0.00 0.00 0.00 0.00 0.00 0.00 0.00 0.00 0.00 0.00 0.00 0.00 0.00 0.00 0.00 0.00 0.00 0.00 0.01 0.01 0.02 0.02 0.02 0.03 0.04 0.04 0.04 0.05 0.06 0.06 0.10 0.11 0.10 0.11 0.12 0.14
0.00 0.00 0.00 0.00 0.00 0.00 0.00 0.00 0.00 0.00 0.00 0.00 0.00 0.00 0.00 0.00 0.00 0.00 0.00 0.00 0.00 0.00 0.00 0.00 0.00 0.00 0.01 0.01 0.02 0.02 0.03 0.04 0.04 0.05 0.05 0.06 0.08 0.10 0.14 0.14 0.13 0.14 0.13
0.00 0.00 0.00 0.00 0.00 0.00 0.00 0.00 0.00 0.00 0.00 0.00 0.00 0.00 0.00 0.00 0.00 0.00 0.00 0.00 0.00 0.00 0.00 0.01 0.01 0.01 0.01 0.01 0.02 0.03 0.04 0.05 0.03 0.03 0.05 0.07 0.09 0.09 0.16 0.21 0.19 0.18 0.16
0.00 0.00 0.00 0.00 0.00 0.00 0.00 0.00 0.00 0.00 0.00 0.00 0.00 0.00 0.00 0.00 0.00 0.00 0.00 0.00 0.00 0.00 0.00 0.01 0.01 0.00 0.00 0.01 0.02 0.02 0.04 0.06 0.05 0.05 0.07 0.09 0.12 0.12 0.14 0.21 0.22 0.19 0.17
0.00 0.00 0.00 0.00 0.00 0.00 0.00 0.00 0.00 0.00 0.00 0.00 0.00 0.00 0.00 0.00 0.00 0.00 0.00 0.00 0.00 0.00 0.00 0.01 0.00 0.00 0.00 0.01 0.02 0.03 0.04 0.06 0.06 0.07 0.08 0.11 0.15 0.19 0.19 0.21 0.21 0.20 0.19
0.00 0.00 0.00 0.00 0.00 0.00 0.00 0.00 0.00 0.00 0.00 0.00 0.00 0.00 0.00 0.00 0.00 0.00 0.00 0.00 0.00 0.00 0.00 0.00 0.00 0.00 0.00 0.01 0.02 0.04 0.04 0.05 0.08 0.11 0.11 0.12 0.18 0.23 0.25 0.23 0.21 0.20 0.20
0.00 0.00 0.00 0.00 0.00 0.00 0.00 0.00 0.00 0.00 0.00 0.00 0.00 0.00 0.00 0.00 0.00 0.00 0.00 0.00 0.00 0.00 0.00 0.00 0.00 0.00 0.00 0.01 0.03 0.04 0.04 0.05 0.09 0.13 0.12 0.14 0.21 0.24 0.25 0.25 0.22 0.18 0.17
0.00 0.00 0.00 0.00 0.00 0.00 0.00 0.00 0.00 0.00 0.00 0.00 0.00 0.00 0.00 0.00 0.00 0.00 0.00 0.00 0.00 0.00 0.00 0.00 0.00 0.01 0.01 0.01 0.02 0.03 0.04 0.07 0.09 0.09 0.09 0.13 0.19 0.22 0.22 0.21 0.22 0.20 0.18
0.00 0.00 0.00 0.00 0.00 0.00 0.00 0.00 0.00 0.00 0.00 0.00 0.00 0.00 0.00 0.00 0.00 0.00 0.00 0.00 0.00 0.00 0.00 0.00 0.00 0.01 0.01 0.01 0.02 0.03 0.04 0.05 0.07 0.07 0.08 0.10 0.12 0.15 0.16 0.14 0.17 0.18 0.15
0.00 0.00 0.00 0.00 0.00 0.00 0.00 0.00 0.00 0.00 0.00 0.00 0.00 0.00 0.00 0.00 0.00 0.00 0.00 0.00 0.00 0.00 0.00 0.00 0.00 0.01 0.01 0.01 0.01 0.02 0.03 0.04 0.05 0.04 0.06 0.08 0.09 0.08 0.09 0.10 0.11 0.11 0.10
MSLP
1018.77 1018.70 1018.61 1018.49 1018.34 1018.16 1017.96 1017.73 1017.48 1017.19 1016.86 1016.48 1016.05 1015.57 1015.06 1014.53 1014.00 1013.52 1013.08 1012.70 1012.41 1012.19 1012.06 1012.02 1012.07 1012.22 1012.46 1012.79 1013.19 1013.64 1014.11 1014.53 1014.88 1015.12 1015.20 1015.14 1014.95 1014.65 1014.30 1013.97 1013.70 1013.54 1013.53
1018.63 1018.59 1018.52 1018.39 1018.23 1018.04 1017.83 1017.60 1017.36 1017.10 1016.82 1016.50 1016.12 1015.70 1015.22 1014.71 1014.20 1013.69 1013.22 1012.80 1012.46 1012.19 1012.00 1011.89 1011.88 1011.96 1012.12 1012.38 1012.72 1013.13 1013.57 1014.01 1014.41 1014.73 1014.92 1014.97 1014.89 1014.68 1014.38 1014.05 1013.75 1013.52 1013.41
1018.51 1018.49 1018.43 1018.31 1018.14 1017.94 1017.73 1017.51 1017.29 1017.08 1016.85 1016.60 1016.29 1015.92 1015.50 1015.02 1014.51 1013.99 1013.50 1013.05 1012.66 1012.34 1012.09 1011.92 1011.83 1011.82 1011.90 1012.06 1012.30 1012.63 1013.01 1013.44 1013.85 1014.23 1014.52 1014.69 1014.73 1014.64 1014.44 1014.17 1013.87 1013.61 1013.43
1018.39 1018.40 1018.35 1018.24 1018.08 1017.88 1017.68 1017.48 1017.29 1017.13 1016.96 1016.76 1016.52 1016.22 1015.84 1015.39 1014.89 1014.38 1013.86 1013.38 1012.96 1012.60 1012.30 1012.08 1011.92 1011.82 1011.80 1011.84 1011.98 1012.20 1012.50 1012.86 1013.27 1013.67 1014.03 1014.31 1014.48 1014.51 1014.43 1014.24 1013.99 1013.73 1013.52
1018.26 1018.30 1018.28 1018.19 1018.04 1017.86 1017.67 1017.49 1017.35 1017.22 1017.10 1016.97 1016.78 1016.52 1016.18 1015.76 1015.28 1014.76 1014.24 1013.74 1013.30 1012.91 1012.58 1012.31 1012.10 1011.93 1011.81 1011.75 1011.77 1011.87 1012.06 1012.35 1012.70 1013.09 1013.48 1013.83 1014.10 1014.25 1014.28 1014.19 1014.01 1013.79 1013.57
1018.09 1018.17 1018.18 1018.12 1018.00 1017.84 1017.68 1017.53 1017.41 1017.32 1017.24 1017.14 1016.99 1016.77 1016.46 1016.06 1015.59 1015.08 1014.56 1014.05 1013.60 1013.20 1012.86 1012.56 1012.31 1012.09 1011.90 1011.75 1011.66 1011.64 1011.72 1011.90 1012.17 1012.52 1012.89 1013.26 1013.59 1013.82 1013.95 1013.96 1013.87 1013.71 1013.52
1017.89 1018.00 1018.05 1018.03 1017.94 1017.80 1017.66 1017.53 1017.43 1017.36 1017.30 1017.22 1017.10 1016.90 1016.61 1016.23 1015.77 1015.27 1014.76 1014.26 1013.81 1013.41 1013.07 1012.77 1012.50 1012.25 1012.01 1011.80 1011.62 1011.50 1011.46 1011.52 1011.69 1011.94 1012.26 1012.61 1012.95 1013.23 1013.43 1013.53 1013.54 1013.46 1013.33
1017.63 1017.78 1017.86 1017.87 1017.81 1017.70 1017.57 1017.45 1017.36 1017.29 1017.24 1017.18 1017.07 1016.88 1016.61 1016.24 1015.80 1015.32 1014.82 1014.34 1013.91 1013.53 1013.20 1012.91 1012.64 1012.38 1012.11 1011.85 1011.60 1011.40 1011.25 1011.20 1011.24 1011.38 1011.61 1011.90 1012.21 1012.51 1012.75 1012.92 1013.02 1013.04 1013.00
1017.33 1017.49 1017.60 1017.63 1017.59 1017.49 1017.38 1017.26 1017.17 1017.11 1017.05 1016.99 1016.89 1016.72 1016.46 1016.12 1015.70 1015.24 1014.77 1014.32 1013.90 1013.54 1013.23 1012.96 1012.70 1012.44 1012.16 1011.87 1011.58 1011.30 1011.07 1010.91 1010.83 1010.85 1010.97 1011.17 1011.43 1011.70 1011.97 1012.20 1012.38 1012.51 1012.58
1017.00 1017.16 1017.27 1017.31 1017.28 1017.19 1017.08 1016.96 1016.87 1016.80 1016.75 1016.69 1016.59 1016.44 1016.20 1015.89 1015.51 1015.09 1014.65 1014.22 1013.83 1013.48 1013.19 1012.92 1012.68 1012.42 1012.15 1011.85 1011.53 1011.20 1010.90 1010.65 1010.47 1010.38 1010.38 1010.48 1010.66 1010.90 1011.16 1011.44 1011.70 1011.93 1012.12
1016.65 1016.80 1016.89 1016.92 1016.88 1016.80 1016.68 1016.57 1016.48 1016.41 1016.36 1016.31 1016.24 1016.11 1015.91 1015.64 1015.30 1014.92 1014.51 1014.11 1013.73 1013.40 1013.10 1012.84 1012.60 1012.35 1012.08 1011.77 1011.44 1011.10 1010.75 1010.43 1010.16 1009.98 1009.88 1009.88 1009.98 1010.16 1010.42 1010.72 1011.03 1011.35 1011.65
1016.30 1016.41 1016.48 1016.48 1016.44 1016.34 1016.23 1016.13 1016.04 1015.99 1015.96 1015.93 1015.89 1015.80 1015.65 1015.42 1015.13 1014.78 1014.40 1014.02 1013.65 1013.31 1013.01 1012.74 1012.48 1012.23 1011.96 1011.66 1011.33 1010.98 1010.61 1010.25 1009.93 1009.66 1009.48 1009.40 1009.42 1009.54 1009.76 1010.06 1010.41 1010.80 1011.18
1015.96 1016.02 1016.04 1016.02 1015.96 1015.86 1015.76 1015.67 1015.61 1015.59 1015.59 1015.60 1015.60 1015.55 1015.45 1015.27 1015.02 1014.71 1014.35 1013.98 1013.60 1013.25 1012.92 1012.63 1012.36 1012.09 1011.82 1011.53 1011.20 1010.85 1010.48 1010.11 1009.75 1009.43 1009.19 1009.03 1008.97 1009.03 1009.20 1009.47 1009.82 1010.23 1010.67
1015.62 1015.63 1015.61 1015.56 1015.48 1015.39 1015.30 1015.24 1015.22 1015.23 1015.28 1015.34 1015.38 1015.39 1015.33 1015.20 1014.98 1014.69 1014.35 1013.97 1013.58 1013.20 1012.85 1012.52 1012.22 1011.94 1011.66 1011.37 1011.05 1010.72 1010.36 1009.98 1009.60 1009.25 1008.96 1008.73 1008.60 1008.59 1008.69 1008.90 1009.21 1009.60 1010.04
1015.29 1015.25 1015.19 1015.12 1015.03 1014.95 1014.88 1014.86 1014.88 1014.94 1015.04 1015.14 1015.24 1015.28 1015.27 1015.16 1014.97 1014.70 1014.36 1013.97 1013.56 1013.15 1012.76 1012.40 1012.07 1011.76 1011.47 1011.18 1010.88 1010.55 1010.20 1009.83 1009.45 1009.08 1008.74 1008.46 1008.26 1008.16 1008.18 1008.31 1008.55 1008.87 1009.26
1014.95 1014.87 1014.79 1014.69 1014.61 1014.54 1014.51 1014.52 1014.58 1014.69 1014.84 1014.99 1015.12 1015.20 1015.20 1015.12 1014.95 1014.68 1014.33 1013.94 1013.51 1013.07 1012.65 1012.26 1011.90 1011.57 1011.26 1010.97 1010.67 1010.35 1010.01 1009.64 1009.26 1008.87 1008.49 1008.16 1007.89 1007.71 1007.63 1007.66 1007.80 1008.03 1008.34
1014.62 1014.51 1014.40 1014.30 1014.22 1014.16 1014.16 1014.21 1014.31 1014.46 1014.64 1014.82 1014.97 1015.07 1015.09 1015.02 1014.85 1014.58 1014.24 1013.83 1013.39 1012.94 1012.50 1012.08 1011.70 1011.35 1011.03 1010.73 1010.42 1010.10 1009.76 1009.39 1008.99 1008.58 1008.18 1007.80 1007.47 1007.21 1007.04 1006.97 1007.00 1007.12 1007.33
1014.31 1014.19 1014.06 1013.95 1013.86 1013.82 1013.83 1013.90 1014.03 1014.20 1014.40 1014.58 1014.75 1014.85 1014.87 1014.80 1014.63 1014.37 1014.04 1013.64 1013.20 1012.75 1012.31 1011.89 1011.50 1011.14 1010.80 1010.48 1010.16 1009.82 1009.46 1009.08 1008.67 1008.24 1007.80 1007.39 1007.01 1006.68 1006.44 1006.28 1006.22 1006.25 1006.36
1014.05 1013.91 1013.77 1013.64 1013.55 1013.50 1013.52 1013.59 1013.72 1013.89 1014.08 1014.26 1014.41 1014.50 1014.52 1014.45 1014.29 1014.04 1013.72 1013.35 1012.94 1012.52 1012.10 1011.69 1011.30 1010.94 1010.59 1010.25 1009.91 1009.55 1009.16 1008.75 1008.31 1007.86 1007.40 1006.96 1006.55 1006.19 1005.90 1005.69 1005.57 1005.53 1005.58
1013.88 1013.72 1013.55 1013.41 1013.29 1013.23 1013.23 1013.28 1013.39 1013.53 1013.68 1013.84 1013.96 1014.03 1014.03 1013.96 1013.81 1013.59 1013.31 1012.99 1012.63 1012.26 1011.88 1011.51 1011.15 1010.79 1010.44 1010.08 1009.71 1009.32 1008.90 1008.46 1008.00 1007.52 1007.05 1006.60 1006.18 1005.81 1005.51 1005.28 1005.14 1005.08 1005.10
1013.83 1013.64 1013.44 1013.27 1013.12 1013.03 1012.98 1012.99 1013.04 1013.13 1013.23 1013.33 1013.40 1013.44 1013.43 1013.36 1013.23 1013.05 1012.82 1012.56 1012.28 1011.98 1011.67 1011.35 1011.03 1010.70 1010.35 1009.99 1009.60 1009.18 1008.73 1008.26 1007.78 1007.28 1006.81 1006.36 1005.95 1005.60 1005.32 1005.11 1004.99 1004.94 1004.98
1013.91 1013.69 1013.47 1013.26 1013.07 1012.92 1012.81 1012.75 1012.73 1012.73 1012.76 1012.78 1012.79 1012.78 1012.74 1012.67 1012.56 1012.42 1012.26 1012.08 1011.88 1011.66 1011.44 1011.20 1010.93 1010.65 1010.33 1009.97 1009.58 1009.15 1008.68 1008.19 1007.69 1007.20 1006.72 1006.28 1005.90 1005.59 1005.35 1005.19 1005.11 1005.11 1005.19
1014.15 1013.90 1013.65 1013.40 1013.16 1012.94 1012.76 1012.61 1012.49 1012.39 1012.31 1012.24 1012.17 1012.09 1012.01 1011.92 1011.83 1011.73 1011.62 1011.52 1011.41 1011.29 1011.16 1011.00 1010.82 1010.59 1010.32 1010.00 1009.63 1009.20 1008.74 1008.25 1007.75 1007.26 1006.80 1006.39 1006.04 1005.76 1005.57 1005.46 1005.44 1005.50 1005.64
1014.52 1014.26 1013.98 1013.69 1013.41 1013.12 1012.86 1012.60 1012.37 1012.15 1011.95 1011.76 1011.58 1011.42 1011.28 1011.16 1011.06 1010.98 1010.92 1010.88 1010.85 1010.82 1010.78 1010.72 1010.62 1010.47 1010.27 1010.00 1009.68 1009.29 1008.86 1008.40 1007.93 1007.46 1007.02 1006.64 1006.32 1006.07 1005.92 1005.86 1005.89 1006.00 1006.19
1015.01 1014.74 1014.46 1014.14 1013.81 1013.47 1013.11 1012.75 1012.40 1012.05 1011.71 1011.39 1011.09 1010.82 1010.60 1010.41 1010.28 1010.19 1010.14 1010.14 1010.16 1010.21 1010.25 1010.27 1010.26 1010.20 1010.09 1009.91 1009.65 1009.34 1008.97 1008.56 1008.14 1007.72 1007.32 1006.96 1006.67 1006.45 1006.32 1006.28 1006.33 1006.47 1006.70
1015.57 1015.32 1015.04 1014.71 1014.35 1013.95 1013.52 1013.06 1012.59 1012.10 1011.62 1011.16 1010.73 1010.34 1010.00 1009.73 1009.53 1009.39 1009.33 1009.32 1009.37 1009.45 1009.54 1009.63 1009.70 1009.73 1009.71 1009.62 1009.47 1009.25 1008.97 1008.65 1008.30 1007.94 1007.59 1007.27 1007.00 1006.80 1006.67 1006.64 1006.68 1006.82 1007.05
Thickness
5701 5697 5693 5690 5686 5683 5680 5676 5673 5672 5670 5669 5668 5669 5671 5674 5677 5679 5681 5683 5687 5691 5696 5700 5705 5709 5713 5717 5721 5722 5723 5725 5727 5725 5726 5733 5740 5746 5749 5752 5756 5757 5758
5700 5696 5692 5689 5684 5680 5677 5674 5671 5669 5667 5664 5664 5664 5665 5668 5670 5672 5674 5677 5680 5684 5689 5693 5697 5701 5705 5709 5713 5716 5717 5719 5722 5720 5718 5719 5725 5734 5744 5747 5749 5754 5755
5697 5695 5691 5687 5684 5679 5675 5672 5669 5667 5665 5662 5662 5661 5662 5664 5666 5667 5669 5672 5674 5678 5681 5686 5690 5694 5698 5702 5706 5709 5711 5712 5716 5718 5716 5715 5718 5725 5735 5742 5746 5749 5751
5698 5694 5690 5686 5683 5679 5676 5673 5669 5666 5663 5661 5659 5658 5657 5657 5659 5661 5664 5668 5671 5673 5676 5679 5683 5687 5691 5695 5699 5705 5707 5708 5709 5712 5715 5719 5723 5718 5721 5731 5740 5745 5747
5698 5694 5690 5686 5684 5680 5675 5671 5668 5665 5661 5659 5656 5655 5655 5654 5656 5658 5660 5663 5666 5668 5671 5673 5677 5681 5685 5688 5692 5697 5700 5703 5705 5707 5709 5711 5713 5719 5718 5719 5727 5734 5741
5700 5696 5692 5688 5684 5680 5675 5671 5667 5663 5660 5657 5656 5654 5652 5651 5652 5653 5654 5657 5661 5663 5666 5668 5671 5675 5678 5682 5686 5689 5693 5697 5701 5704 5706 5708 5708 5712 5715 5716 5719 5724 5732
5701 5697 5693 5689 5684 5680 5675 5671 5667 5663 5660 5658 5656 5654 5652 5650 5649 5649 5651 5652 5655 5657 5660 5662 5665 5668 5672 5675 5678 5682 5687 5691 5695 5699 5702 5706 5708 5711 5712 5711 5713 5717 5723
5703 5698 5694 5690 5685 5681 5677 5673 5668 5664 5661 5658 5656 5654 5652 5650 5649 5648 5648 5649 5650 5651 5654 5655 5658 5661 5664 5668 5671 5675 5680 5686 5689 5694 5697 5700 5703 5706 5707 5708 5707 5707 5711
5705 5701 5697 5693 5689 5684 5679 5675 5670 5667 5663 5659 5656 5654 5652 5649 5647 5646 5646 5646 5647 5647 5649 5650 5653 5655 5658 5661 5664 5668 5673 5678 5683 5687 5691 5694 5698 5700 5703 5705 5705 5703 5703
5708 5704 5700 5696 5692 5688 5683 5678 5673 5669 5665 5661 5658 5654 5651 5649 5646 5645 5644 5644 5644 5644 5645 5646 5648 5650 5652 5654 5657 5661 5665 5670 5675 5679 5683 5688 5692 5695 5698 5700 5702 5703 5703
5710 5707 5703 5699 5695 5691 5686 5681 5677 5672 5667 5663 5659 5655 5652 5649 5647 5645 5643 5642 5642 5642 5642 5642 5643 5645 5646 5648 5651 5655 5658 5663 5668 5673 5677 5681 5685 5688 5691 5694 5696 5698 5699
5713 5710 5706 5702 5698 5694 5690 5685 5681 5675 5669 5665 5661 5657 5653 5650 5648 5646 5643 5642 5640 5639 5639 5639 5639 5640 5641 5643 5645 5648 5652 5656 5660 5665 5670 5675 5679 5682 5685 5688 5691 5693 5695
5716 5712 5708 5704 5700 5696 5692 5688 5684 5678 5672 5667 5662 5659 5656 5651 5648 5645 5643 5641 5639 5637 5636 5635 5635 5636 5637 5639 5641 5643 5647 5651 5655 5659 5664 5668 5672 5676 5679 5682 5685 5688 5690
5718 5715 5710 5707 5703 5700 5696 5691 5687 5681 5675 5670 5665 5660 5657 5652 5648 5646 5642 5640 5638 5635 5633 5632 5631 5631 5633 5635 5637 5639 5642 5646 5650 5654 5658 5662 5666 5670 5673 5677 5680 5682 5683
5720 5717 5713 5711 5707 5703 5699 5695 5689 5684 5679 5673 5667 5663 5659 5654 5649 5646 5642 5640 5636 5634 5631 5629 5628 5628 5629 5630 5630 5633 5638 5641 5645 5649 5653 5657 5660 5664 5668 5672 5675 5676 5678
5723 5720 5717 5713 5709 5706 5702 5698 5692 5688 5682 5676 5670 5665 5660 5655 5650 5646 5643 5640 5636 5633 5630 5628 5626 5625 5625 5624 5624 5627 5632 5637 5640 5643 5648 5652 5655 5658 5660 5664 5668 5672 5674
5726 5722 5720 5716 5713 5710 5705 5699 5695 5689 5684 5678 5673 5667 5662 5657 5652 5648 5644 5640 5637 5633 5629 5627 5625 5624 5623 5621 5622 5623 5628 5632 5636 5639 5643 5647 5652 5653 5658 5660 5662 5666 5669
5727 5724 5722 5718 5715 5712 5707 5702 5696 5691 5686 5680 5675 5669 5663 5658 5654 5649 5645 5641 5638 5634 5629 5627 5625 5623 5622 5620 5620 5622 5627 5631 5633 5636 5639 5642 5646 5650 5652 5656 5659 5663 5666
5729 5726 5723 5720 5717 5713 5708 5703 5698 5693 5687 5681 5676 5672 5666 5660 5655 5651 5647 5643 5638 5634 5631 5628 5625 5623 5622 5620 5620 5621 5626 5629 5631 5633 5635 5638 5641 5643 5645 5650 5654 5657 5660
5728 5725 5722 5719 5716 5712 5708 5702 5698 5694 5688 5683 5679 5674 5669 5662 5657 5654 5649 5645 5640 5635 5632 5629 5627 5624 5623 5620 5619 5619 5625 5627 5628 5630 5632 5633 5635 5638 5640 5645 5649 5651 5654
5724 5722 5719 5716 5714 5711 5706 5701 5699 5695 5691 5686 5680 5675 5670 5665 5660 5656 5651 5647 5643 5639 5635 5632 5630 5627 5623 5621 5618 5618 5621 5623 5625 5627 5630 5632 5632 5635 5637 5640 5645 5648 5649
5720 5718 5715 5713 5711 5708 5703 5700 5697 5696 5691 5685 5680 5676 5672 5668 5663 5658 5654 5650 5646 5642 5639 5637 5634 5631 5627 5622 5620 5618 5618 5619 5623 5625 5627 5630 5630 5632 5634 5636 5639 5641 5643
5715 5713 5711 5708 5707 5705 5701 5697 5697 5694 5689 5685 5680 5677 5674 5670 5665 5661 5657 5653 5649 5645 5643 5640 5637 5634 5631 5627 5622 5620 5619 5619 5622 5624 5624 5625 5626 5628 5630 5632 5633 5636 5638
5707 5706 5704 5701 5700 5700 5697 5694 5693 5691 5687 5684 5682 5680 5676 5673 5669 5664 5660 5656 5652 5649 5646 5642 5639 5636 5633 5630 5627 5625 5625 5623 5624 5625 5624 5623 5623 5625 5626 5628 5630 5631 5633
5698 5697 5694 5692 5691 5692 5690 5689 5687 5686 5684 5684 5682 5680 5677 5674 5670 5667 5663 5659 5656 5651 5646 5644 5641 5637 5635 5631 5624 5623 5624 5624 5624 5624 5626 5625 5625 5624 5624 5625 5625 5626 5627
5687 5685 5684 5682 5682 5682 5681 5680 5680 5679 5679 5680 5680 5678 5676 5673 5670 5668 5666 5661 5655 5652 5646 5642 5638 5639 5634 5630 5627 5624 5622 5622 5622 5623 5626 5626 5625 5623 5623 5623 5623 5623 5623